Regional Weather Roundup
Issued by NWS

Home | Current Version | Previous Version | Graphics & Text | Print | Product List | Glossary Off
Versions: 1 2 3 4 5 6 7 8 9 10 11 12 13 14 15 16 17 18 19 20 21 22 23 24 25 26 27 28 29 30 31 32 33 34 35 36 37 38 39 40 41 42 43 44 45 46 47 48 49 50

000
ASUS43 KDMX 211306
RWRIA

WEATHER ROUNDUP FOR IOWA
NATIONAL WEATHER SERVICE DES MOINES IA
700 AM CST TUE NOV 21 2017

NOTE: "FAIR" INDICATES FEW OR NO CLOUDS BELOW 12,000 FEET WITH NO
SIGNIFICANT WEATHER AND/OR OBSTRUCTIONS TO VISIBILITY.

* - THESE STATIONS ARE NOT NWS STATIONS...THUS NOT UNDER NWS
QUALITY CONTROL.  THEY ALSO DO NOT REPORT WEATHER SUCH
AS PRECIPITATION OR FOG.

IAZ001>003-012>014-020>022-031>034-043>046-211400-
   NORTHWEST IOWA

CITY           SKY/WX    TMP DP  RH WIND       PRES   REMARKS
CARROLL *      CLOUDY    39  19  45 NW22G30   29.93R WCI  29
CHEROKEE *     CLOUDY    33  15  47 N23G32    29.98R WCI  21
DENISON *      CLOUDY    39  19  45 NW24G31   29.97R WCI  28
LE MARS *      CLOUDY    28  10  47 NW23G35   30.03R WCI  14
ORANGE CITY *  CLOUDY    27  12  54 N22G28    30.00R WCI  12
SHELDON *      PTCLDY    23  10  58 NW23G30   29.99R WCI   7
SIOUX CITY     MOCLDY    37  12  35 NW32G41   29.97R WCI  24
SPENCER        CLOUDY    26  11  52 NW23G35   29.96R WCI  11
STORM LAKE *   MOCLDY    34  14  44 NW30G40   29.93R WCI  20
$$

IAZ055>058-069>071-079>083-090>094-211400-
   SOUTHWEST IOWA

CITY           SKY/WX    TMP DP  RH WIND       PRES   REMARKS
ATLANTIC *     LGT RAIN  37  28  70 N17       29.94R WCI  28
AUDUBON *      CLOUDY    39  21  48 NW16      29.94R WCI  30
CLARINDA *       N/A     43  27  52 N20G29    29.94R
COUNCIL BLFS * CLOUDY    37  30  75 N15G22    29.97R WCI  28
CRESTON *      MIX PCPN  41  25  52 N17G24    29.92R
HARLAN  *      CLOUDY    37  25  60 N17       29.98R WCI  28
LAMONI         CLOUDY    43  24  47 N16G23    29.88R
RED OAK *      LGT RAIN  39  30  70 N20G25    29.95R WCI  30
SHENANDOAH *   CLOUDY    43  25  49 N20G26    29.96R
$$

IAZ047>049-059>061-072>074-084-211400-
   CENTRAL IOWA

CITY           SKY/WX    TMP DP  RH WIND       PRES   REMARKS
AMES           CLOUDY    40  19  43 NW25G32   29.88R WCI  29
ANKENY *       CLOUDY    39  23  52 NW13      29.91R WCI  32
BOONE *        CLOUDY    39  18  41 NW21G36   29.88R WCI  29
CHARITON *     CLOUDY    43  27  52 NW10      29.88R
DES MOINES     LGTSLEET  39  25  57 NW15      29.90R WCI  31
GRINNELL*      LGT RAIN  36  26  66 NW14G20   29.88R WCI  27
KNOXVILLE *    CLOUDY    41  18  38 N21G28    29.87R
MARSHALLTOWN   CLOUDY    38  19  46 NW22G35   29.85R WCI  27
NEWTON *       CLOUDY    37  23  56 NW17G24   29.88R WCI  28
PELLA *        DRIZZLE   40  22  49 N13G20    29.89R WCI  33
PERRY *        CLOUDY    38  19  46 NW14G23   29.92R WCI  30
$$

IAZ004>006-015-016-023>025-035-036-211400-
   NORTH CENTRAL IOWA

CITY           SKY/WX    TMP DP  RH WIND       PRES   REMARKS
ALGONA *       MOCLDY    32  18  55 NW18      29.91R WCI  20
CLARION *      CLOUDY    34  19  55 NW28G35   29.88R WCI  20
ESTHERVILLE    CLOUDY    23  13  65 NW33G43   29.96R WCI   5
FORT DODGE *   CLOUDY    37  19  48 NW12G21   29.91R WCI  29
MASON CITY     PTCLDY    28  16  60 NW29G35   29.87R WCI  12
FOREST CITY *    N/A     30  18  59 NW18G32   29.88R WCI  18
WEBSTER CITY * CLOUDY    37  19  48 NW23      29.87R WCI  26
IOWA FALLS *   CLOUDY    37  20  50 NW23G30   29.86R WCI  26
$$

IAZ007>011-017>019-026>030-037>042-050>054-066-211400-
   NORTHEAST IOWA

CITY           SKY/WX    TMP DP  RH WIND       PRES   REMARKS
CEDAR RAPIDS   LGT RAIN  39  23  52 NW20G25   29.81R WCI  29
CHARLES CITY * CLOUDY    30  16  55 NW21G33   29.83R WCI  17
CLINTON *      CLOUDY    41  31  67 W14       29.75R
DECORAH *      CLOUDY    30  18  59 NW15G26   29.77R WCI  19
DUBUQUE        CLOUDY    38  18  44 NW15      29.73R WCI  29
MONTICELLO *   CLOUDY    39  18  41 NW22G33   29.77R WCI  29
OELWEIN *      CLOUDY    36  18  48 NW21G31   29.80R WCI  24
WATERLOO       CLOUDY    36  16  44 NW25G32   29.82R WCI  24
$$

IAZ064-065-067-068-078-211400-
   EAST CENTRAL IOWA

CITY           SKY/WX    TMP DP  RH WIND       PRES   REMARKS
DAVENPORT      CLOUDY    41  30  65 W12       29.77R
IOWA CITY      CLOUDY    43  25  49 NW14G23   29.82R
MT. PLEASANT * CLOUDY    43  28  55 NW9       29.82R
MUSCATINE *    CLOUDY    43  30  61 NW15      29.81R
QUAD CITIES    CLOUDY    44  28  53 W10       29.75R
$$

IAZ062-063-075>077-085>089-095>099-211400-
   SOUTHEAST IOWA

CITY           SKY/WX    TMP DP  RH WIND       PRES   REMARKS
BURLINGTON     CLOUDY    44  32  62 NW5       29.80R
FAIRFIELD *    CLOUDY    41  28  60 NW14      29.83R
FORT MADISON * CLOUDY    45  34  65 NW8       29.82R
KEOKUK *       CLOUDY    43  32  65 W9        29.81R
OSKALOOSA *    MOCLDY    40  26  58 NW16      29.87R WCI  31
OTTUMWA        CLOUDY    43  25  49 NW14      29.86R
WASHINGTON *   CLOUDY    43  27  52 NW15G24   29.83R
$$

ABBREVIATIONS USED IN REMARKS
   TC - TEMPERATURES IN CELSIUS
  WCI - WIND CHILL INDEX
   HX - HEAT INDEX
  VSB - VISIBILITY
$$




USA.gov is the U.S. government's official web portal to all federal, state and local government web resources and services.